Time,TemperatureF,DewpointF,PressureIn,WindDirection,WindDirectionDegrees,WindSpeedMPH,WindSpeedGustMPH,Humidity,HourlyPrecipIn,Conditions,Clouds,dailyrainin,SoftwareType,DateUTC
2013-01-24 00:09:00,16.9,9.7,30.02,SSW,202,0.0,0.0,73,0.00,,,0.00,WUHU21623XXSP,2013-01-24 05:09:00,
2013-01-24 00:19:00,16.9,9.7,30.02,SSW,202,0.0,0.0,73,0.00,,,0.00,WUHU21623XXSP,2013-01-24 05:19:00,
2013-01-24 00:29:00,16.9,9.7,30.01,SSW,202,0.0,0.0,73,0.00,,,0.00,WUHU21623XXSP,2013-01-24 05:29:00,
2013-01-24 00:39:00,16.9,9.7,30.00,SSW,202,0.0,0.0,73,0.00,,,0.00,WUHU21623XXSP,2013-01-24 05:39:00,
2013-01-24 00:49:00,16.9,9.7,30.01,SSW,202,0.0,0.0,73,0.00,,,0.00,WUHU21623XXSP,2013-01-24 05:49:00,
2013-01-24 00:59:00,16.9,9.7,30.00,SSW,202,0.0,0.0,73,0.00,,,0.00,WUHU21623XXSP,2013-01-24 05:59:00,
2013-01-24 01:09:00,16.9,9.9,30.00,SSW,202,0.0,0.0,74,0.00,,,0.00,WUHU21623XXSP,2013-01-24 06:09:00,
2013-01-24 01:19:00,16.9,9.9,30.00,SSW,202,0.0,0.0,74,0.00,,,0.00,WUHU21623XXSP,2013-01-24 06:19:00,
2013-01-24 01:29:00,16.9,9.9,30.01,SSW,202,0.0,0.0,74,0.00,,,0.00,WUHU21623XXSP,2013-01-24 06:29:00,
2013-01-24 01:39:00,16.9,9.9,30.00,SSW,202,0.0,0.0,74,0.00,,,0.00,WUHU21623XXSP,2013-01-24 06:39:00,
2013-01-24 01:49:00,16.9,9.9,30.01,SSW,202,0.0,0.0,74,0.00,,,0.00,WUHU21623XXSP,2013-01-24 06:49:00,
2013-01-24 01:59:00,16.9,9.9,30.01,SSW,202,0.0,0.0,74,0.00,,,0.00,WUHU21623XXSP,2013-01-24 06:59:00,
2013-01-24 02:09:00,16.5,9.6,30.01,SSW,202,0.0,0.0,74,0.00,,,0.00,WUHU21623XXSP,2013-01-24 07:09:00,
2013-01-24 02:19:00,16.3,9.4,30.02,SSW,202,0.0,0.0,74,0.00,,,0.00,WUHU21623XXSP,2013-01-24 07:19:00,
2013-01-24 02:29:00,16.2,9.6,30.02,SSW,202,0.0,0.0,75,0.00,,,0.00,WUHU21623XXSP,2013-01-24 07:29:00,
2013-01-24 02:39:00,16.3,9.7,30.03,SSW,202,0.0,0.0,75,0.00,,,0.00,WUHU21623XXSP,2013-01-24 07:39:00,
2013-01-24 02:49:00,16.3,10.0,30.03,SSW,202,0.0,0.0,76,0.00,,,0.00,WUHU21623XXSP,2013-01-24 07:49:00,
2013-01-24 02:59:00,16.5,10.2,30.03,SSW,202,0.0,0.0,76,0.00,,,0.00,WUHU21623XXSP,2013-01-24 07:59:00,
2013-01-24 03:09:00,16.5,10.2,30.03,WSW,247,0.0,0.0,76,0.00,,,0.00,WUHU21623XXSP,2013-01-24 08:09:00,
2013-01-24 03:19:00,16.3,9.7,30.04,NW,315,0.0,0.0,75,0.00,,,0.00,WUHU21623XXSP,2013-01-24 08:19:00,
2013-01-24 03:29:00,16.3,9.7,30.04,NW,315,0.0,0.0,75,0.00,,,0.00,WUHU21623XXSP,2013-01-24 08:29:00,
2013-01-24 03:39:00,16.2,9.6,30.05,NW,315,0.0,0.0,75,0.00,,,0.00,WUHU21623XXSP,2013-01-24 08:39:00,
2013-01-24 03:49:00,16.0,9.4,30.05,NW,315,0.0,0.0,75,0.00,,,0.00,WUHU21623XXSP,2013-01-24 08:49:00,
2013-01-24 03:59:00,16.0,9.4,30.05,WNW,292,0.0,0.0,75,0.00,,,0.00,WUHU21623XXSP,2013-01-24 08:59:00,
2013-01-24 04:09:00,16.0,9.4,30.06,NW,315,0.0,0.0,75,0.00,,,0.00,WUHU21623XXSP,2013-01-24 09:09:00,
2013-01-24 04:19:00,16.0,9.4,30.07,WNW,292,0.0,0.0,75,0.00,,,0.00,WUHU21623XXSP,2013-01-24 09:19:00,
2013-01-24 04:29:00,16.0,9.4,30.07,NW,315,0.0,0.0,75,0.00,,,0.00,WUHU21623XXSP,2013-01-24 09:29:00,
2013-01-24 04:39:00,15.8,9.5,30.07,NW,315,0.0,0.0,76,0.00,,,0.00,WUHU21623XXSP,2013-01-24 09:39:00,
2013-01-24 04:49:00,15.6,9.4,30.08,NW,315,0.0,0.0,76,0.00,,,0.00,WUHU21623XXSP,2013-01-24 09:49:00,
2013-01-24 04:59:00,15.6,9.7,30.09,NW,315,0.0,0.0,77,0.00,,,0.00,WUHU21623XXSP,2013-01-24 09:59:00,
2013-01-24 05:09:00,15.6,9.7,30.10,NW,315,0.0,0.0,77,0.00,,,0.00,WUHU21623XXSP,2013-01-24 10:09:00,
2013-01-24 05:19:00,15.6,9.7,30.11,NW,315,0.0,0.0,77,0.00,,,0.00,WUHU21623XXSP,2013-01-24 10:19:00,
2013-01-24 05:29:00,15.6,9.7,30.12,NW,315,0.0,0.0,77,0.00,,,0.00,WUHU21623XXSP,2013-01-24 10:29:00,
2013-01-24 05:39:00,15.4,9.2,30.12,NW,315,0.0,0.0,76,0.00,,,0.00,WUHU21623XXSP,2013-01-24 10:39:00,
2013-01-24 05:49:00,15.4,9.2,30.13,NW,315,0.0,0.0,76,0.00,,,0.00,WUHU21623XXSP,2013-01-24 10:49:00,
2013-01-24 05:59:00,15.4,9.2,30.14,NW,315,0.0,0.0,76,0.00,,,0.00,WUHU21623XXSP,2013-01-24 10:59:00,
2013-01-24 06:09:00,15.4,9.2,30.15,WNW,292,0.0,0.0,76,0.00,,,0.00,WUHU21623XXSP,2013-01-24 11:09:00,
2013-01-24 06:19:00,15.3,9.3,30.16,WNW,292,0.0,0.0,77,0.00,,,0.00,WUHU21623XXSP,2013-01-24 11:19:00,
2013-01-24 06:29:00,15.1,9.1,30.17,NW,315,0.0,0.0,77,0.00,,,0.00,WUHU21623XXSP,2013-01-24 11:29:00,
2013-01-24 06:39:00,15.1,8.8,30.17,NW,315,0.0,0.0,76,0.00,,,0.00,WUHU21623XXSP,2013-01-24 11:39:00,
2013-01-24 06:49:00,15.1,8.7,30.19,NW,315,0.0,0.0,76,0.00,,,0.00,WUHU21623XXSP,2013-01-24 11:49:00,
2013-01-24 06:59:00,15.1,9.1,30.19,NW,315,0.0,0.0,77,0.00,,,0.00,WUHU21623XXSP,2013-01-24 11:59:00,
2013-01-24 07:09:00,14.9,9.1,30.20,WNW,292,0.0,0.0,77,0.00,,,0.00,WUHU21623XXSP,2013-01-24 12:09:00,
2013-01-24 07:19:00,14.9,8.7,30.21,NNW,337,0.0,0.0,77,0.00,,,0.00,WUHU21623XXSP,2013-01-24 12:19:00,
2013-01-24 07:29:00,14.7,8.5,30.22,NW,315,0.0,0.0,76,0.00,,,0.00,WUHU21623XXSP,2013-01-24 12:29:00,
2013-01-24 07:39:00,14.7,8.5,30.22,WNW,292,0.0,0.0,76,0.00,,,0.00,WUHU21623XXSP,2013-01-24 12:39:00,
2013-01-24 07:49:00,14.7,8.3,30.23,NW,315,0.0,0.0,76,0.00,,,0.00,WUHU21623XXSP,2013-01-24 12:49:00,
2013-01-24 07:59:00,14.2,8.0,30.24,NW,315,0.0,0.0,76,0.00,,,0.00,WUHU21623XXSP,2013-01-24 12:59:00,
2013-01-24 08:09:00,14.2,7.7,30.25,NW,315,0.0,0.0,75,0.00,,,0.00,WUHU21623XXSP,2013-01-24 13:09:00,
2013-01-24 08:19:00,14.2,7.7,30.26,NW,315,0.0,0.0,75,0.00,,,0.00,WUHU21623XXSP,2013-01-24 13:19:00,
2013-01-24 08:29:00,14.5,8.0,30.27,NW,315,0.0,0.0,75,0.00,,,0.00,WUHU21623XXSP,2013-01-24 13:29:00,
2013-01-24 08:39:00,14.5,8.0,30.28,NW,315,0.0,0.0,75,0.00,,,0.00,WUHU21623XXSP,2013-01-24 13:39:00,
2013-01-24 08:49:00,14.5,7.7,30.28,NW,315,0.0,0.0,74,0.00,,,0.00,WUHU21623XXSP,2013-01-24 13:49:00,
2013-01-24 08:59:00,14.5,7.7,30.30,WNW,292,0.0,0.0,74,0.00,,,0.00,WUHU21623XXSP,2013-01-24 13:59:00,
2013-01-24 09:09:00,14.7,7.9,30.30,NW,315,0.0,0.0,74,0.00,,,0.00,WUHU21623XXSP,2013-01-24 14:09:00,
2013-01-24 09:19:00,14.9,7.8,30.31,NW,315,0.0,0.0,73,0.00,,,0.00,WUHU21623XXSP,2013-01-24 14:19:00,
2013-01-24 09:29:00,15.1,7.9,30.32,NW,315,0.0,0.0,73,0.00,,,0.00,WUHU21623XXSP,2013-01-24 14:29:00,
2013-01-24 09:39:00,15.3,8.1,30.32,North,0,0.0,0.0,73,0.00,,,0.00,WUHU21623XXSP,2013-01-24 14:39:00,
2013-01-24 09:50:00,15.3,8.0,30.34,NW,315,0.0,0.0,72,0.00,,,0.00,WUHU21623XXSP,2013-01-24 14:50:00,
2013-01-24 10:00:00,16.0,7.8,30.34,NNW,337,0.0,0.0,71,0.00,,,0.00,WUHU21623XXSP,2013-01-24 15:00:00,
2013-01-24 10:10:00,16.5,8.4,30.34,NE,45,0.0,0.0,70,0.00,,,0.00,WUHU21623XXSP,2013-01-24 15:10:00,
2013-01-24 10:19:00,17.2,8.8,30.35,NNE,22,6.9,6.9,69,0.00,,,0.00,WUHU21623XXSP,2013-01-24 15:19:00,
2013-01-24 10:29:00,17.2,7.8,30.36,NNW,337,2.7,8.1,65,0.00,,,0.00,WUHU21623XXSP,2013-01-24 15:29:00,
2013-01-24 10:39:00,17.2,6.7,30.36,NE,45,2.0,6.5,63,0.00,,,0.00,WUHU21623XXSP,2013-01-24 15:39:00,
2013-01-24 10:49:00,17.8,8.0,30.37,NNW,337,3.6,3.6,65,0.00,,,0.00,WUHU21623XXSP,2013-01-24 15:49:00,
2013-01-24 10:59:00,17.4,6.9,30.38,North,0,0.0,7.4,63,0.00,,,0.00,WUHU21623XXSP,2013-01-24 15:59:00,
2013-01-24 11:09:00,18.5,7.2,30.38,NE,45,7.4,7.4,61,0.00,,,0.00,WUHU21623XXSP,2013-01-24 16:09:00,
2013-01-24 11:19:00,18.3,7.1,30.39,NW,315,2.7,4.5,61,0.00,,,0.00,WUHU21623XXSP,2013-01-24 16:19:00,
2013-01-24 11:29:00,19.0,6.6,30.39,NNW,337,2.7,3.1,58,0.00,,,0.00,WUHU21623XXSP,2013-01-24 16:29:00,
2013-01-24 11:39:00,19.2,6.7,30.39,NNW,337,2.5,7.2,58,0.00,,,0.00,WUHU21623XXSP,2013-01-24 16:39:00,
2013-01-24 11:49:00,19.6,6.7,30.39,NNW,337,0.0,8.7,57,0.00,,,0.00,WUHU21623XXSP,2013-01-24 16:49:00,
2013-01-24 11:59:00,20.5,6.7,30.39,NE,45,2.7,8.5,55,0.00,,,0.00,WUHU21623XXSP,2013-01-24 16:59:00,
2013-01-24 12:09:00,20.1,5.2,30.40,NE,45,8.9,8.9,52,0.00,,,0.00,WUHU21623XXSP,2013-01-24 17:09:00,
2013-01-24 12:19:00,20.5,5.5,30.40,NE,45,2.9,6.3,52,0.00,,,0.00,WUHU21623XXSP,2013-01-24 17:19:00,
2013-01-24 12:29:00,21.0,5.6,30.40,NNW,337,7.6,8.3,51,0.00,,,0.00,WUHU21623XXSP,2013-01-24 17:29:00,
2013-01-24 12:39:00,20.8,5.4,30.40,NNW,337,3.8,7.2,51,0.00,,,0.00,WUHU21623XXSP,2013-01-24 17:39:00,
2013-01-24 12:49:00,20.5,5.1,30.40,NNW,337,3.6,7.2,51,0.00,,,0.00,WUHU21623XXSP,2013-01-24 17:49:00,
2013-01-24 13:00:00,21.0,4.7,30.39,NW,315,7.4,11.0,49,0.00,,,0.00,WUHU21623XXSP,2013-01-24 18:00:00,
2013-01-24 13:10:00,21.7,5.4,30.39,NW,315,6.9,7.4,49,0.00,,,0.00,WUHU21623XXSP,2013-01-24 18:10:00,
2013-01-24 13:20:00,21.7,5.4,30.39,NW,315,5.6,8.5,49,0.00,,,0.00,WUHU21623XXSP,2013-01-24 18:20:00,
2013-01-24 13:30:00,21.0,4.7,30.39,NW,315,5.6,5.6,49,0.00,,,0.00,WUHU21623XXSP,2013-01-24 18:30:00,
2013-01-24 13:40:00,21.6,5.7,30.39,NNW,337,2.9,5.6,49,0.00,,,0.00,WUHU21623XXSP,2013-01-24 18:40:00,
2013-01-24 13:50:00,20.8,4.6,30.39,WNW,292,3.4,6.0,49,0.00,,,0.00,WUHU21623XXSP,2013-01-24 18:50:00,
2013-01-24 14:00:00,21.4,4.6,30.39,West,270,0.0,7.4,48,0.00,,,0.00,WUHU21623XXSP,2013-01-24 19:00:00,
2013-01-24 14:10:00,20.8,4.1,30.39,NW,315,4.5,6.5,48,0.00,,,0.00,WUHU21623XXSP,2013-01-24 19:10:00,
2013-01-24 14:20:00,20.5,3.8,30.39,North,0,3.8,7.6,48,0.00,,,0.00,WUHU21623XXSP,2013-01-24 19:20:00,
2013-01-24 14:30:00,20.5,3.8,30.39,NW,315,2.7,6.9,48,0.00,,,0.00,WUHU21623XXSP,2013-01-24 19:30:00,
2013-01-24 14:40:00,20.8,3.6,30.39,NW,315,4.3,7.8,47,0.00,,,0.00,WUHU21623XXSP,2013-01-24 19:40:00,
2013-01-24 14:50:00,21.4,4.1,30.39,NNW,337,4.9,6.5,47,0.00,,,0.00,WUHU21623XXSP,2013-01-24 19:50:00,
2013-01-24 15:00:00,21.9,4.6,30.39,West,270,7.4,7.4,47,0.00,,,0.00,WUHU21623XXSP,2013-01-24 20:00:00,
2013-01-24 15:10:00,21.9,4.6,30.40,NNW,337,7.8,11.4,47,0.00,,,0.00,WUHU21623XXSP,2013-01-24 20:10:00,
2013-01-24 15:20:00,22.1,4.4,30.40,NW,315,7.8,7.8,46,0.00,,,0.00,WUHU21623XXSP,2013-01-24 20:20:00,
2013-01-24 15:30:00,22.1,4.4,30.40,WNW,292,4.9,7.6,46,0.00,,,0.00,WUHU21623XXSP,2013-01-24 20:30:00,
2013-01-24 15:40:00,22.1,4.8,30.41,NW,315,4.5,7.8,47,0.00,,,0.00,WUHU21623XXSP,2013-01-24 20:40:00,
2013-01-24 15:50:00,22.1,4.8,30.42,NNW,337,3.6,3.6,47,0.00,,,0.00,WUHU21623XXSP,2013-01-24 20:50:00,
2013-01-24 16:00:00,21.9,4.2,30.41,North,0,4.5,6.9,46,0.00,,,0.00,WUHU21623XXSP,2013-01-24 21:00:00,
2013-01-24 16:10:00,21.7,4.5,30.42,NNW,337,1.6,7.8,47,0.00,,,0.00,WUHU21623XXSP,2013-01-24 21:10:00,
2013-01-24 16:20:00,21.4,5.5,30.42,NE,45,3.4,6.5,50,0.00,,,0.00,WUHU21623XXSP,2013-01-24 21:20:00,
2013-01-24 16:30:00,20.5,5.9,30.43,NNW,337,4.7,8.3,53,0.00,,,0.00,WUHU21623XXSP,2013-01-24 21:30:00,
2013-01-24 16:40:00,19.9,5.8,30.43,North,0,1.8,4.7,54,0.00,,,0.00,WUHU21623XXSP,2013-01-24 21:40:00,
2013-01-24 16:50:00,19.6,5.9,30.44,North,0,2.7,2.7,55,0.00,,,0.00,WUHU21623XXSP,2013-01-24 21:50:00,
2013-01-24 17:00:00,19.6,5.9,30.44,WNW,292,0.0,6.5,55,0.00,,,0.00,WUHU21623XXSP,2013-01-24 22:00:00,
2013-01-24 17:10:00,19.2,5.6,30.44,NW,315,2.0,5.6,55,0.00,,,0.00,WUHU21623XXSP,2013-01-24 22:10:00,
2013-01-24 17:20:00,19.2,6.0,30.44,WNW,292,3.1,4.9,56,0.00,,,0.00,WUHU21623XXSP,2013-01-24 22:20:00,
2013-01-24 17:30:00,19.2,6.0,30.45,WNW,292,5.1,5.1,56,0.00,,,0.00,WUHU21623XXSP,2013-01-24 22:30:00,
2013-01-24 17:40:00,19.2,6.0,30.44,NW,315,2.5,3.6,56,0.00,,,0.00,WUHU21623XXSP,2013-01-24 22:40:00,
2013-01-24 17:50:00,19.0,5.8,30.45,NNE,22,4.0,4.0,56,0.00,,,0.00,WUHU21623XXSP,2013-01-24 22:50:00,
2013-01-24 18:00:00,18.3,7.4,30.45,NNE,22,2.5,7.6,62,0.00,,,0.00,WUHU21623XXSP,2013-01-24 23:00:00,
2013-01-24 18:10:00,18.1,6.9,30.46,NE,45,0.0,7.4,61,0.00,,,0.00,WUHU21623XXSP,2013-01-24 23:10:00,
2013-01-24 18:20:00,18.0,5.6,30.47,North,0,0.0,1.6,58,0.00,,,0.00,WUHU21623XXSP,2013-01-24 23:20:00,
2013-01-24 18:30:00,17.8,5.1,30.47,North,0,0.0,0.0,57,0.00,,,0.00,WUHU21623XXSP,2013-01-24 23:30:00,
2013-01-24 18:40:00,17.4,4.7,30.46,NW,315,1.8,1.8,57,0.00,,,0.00,WUHU21623XXSP,2013-01-24 23:40:00,
2013-01-24 18:50:00,17.4,4.7,30.47,NW,315,3.4,3.4,57,0.00,,,0.00,WUHU21623XXSP,2013-01-24 23:50:00,
2013-01-24 19:00:00,17.2,4.5,30.47,NNW,337,2.5,2.5,57,0.00,,,0.00,WUHU21623XXSP,2013-01-25 00:00:00,
2013-01-24 19:10:00,17.2,4.5,30.47,NW,315,0.0,2.2,57,0.00,,,0.00,WUHU21623XXSP,2013-01-25 00:10:00,
2013-01-24 19:20:00,16.9,4.2,30.48,NW,315,0.0,0.0,57,0.00,,,0.00,WUHU21623XXSP,2013-01-25 00:20:00,
2013-01-24 19:30:00,16.7,4.0,30.47,NW,315,2.2,2.2,57,0.00,,,0.00,WUHU21623XXSP,2013-01-25 00:30:00,
2013-01-24 19:40:00,16.3,3.7,30.47,NW,315,0.0,0.0,57,0.00,,,0.00,WUHU21623XXSP,2013-01-25 00:40:00,
2013-01-24 19:50:00,16.2,3.5,30.47,NW,315,0.0,0.0,57,0.00,,,0.00,WUHU21623XXSP,2013-01-25 00:50:00,
2013-01-24 20:00:00,15.8,3.1,30.48,NW,315,0.0,0.0,57,0.00,,,0.00,WUHU21623XXSP,2013-01-25 01:00:00,
2013-01-24 20:10:00,15.6,3.3,30.48,NW,315,0.0,0.0,58,0.00,,,0.00,WUHU21623XXSP,2013-01-25 01:10:00,
2013-01-24 20:20:00,15.3,3.0,30.48,NW,315,0.0,0.0,58,0.00,,,0.00,WUHU21623XXSP,2013-01-25 01:20:00,
2013-01-24 20:30:00,14.9,3.1,30.47,NW,315,0.0,0.0,59,0.00,,,0.00,WUHU21623XXSP,2013-01-25 01:30:00,
2013-01-24 20:40:00,14.7,2.9,30.47,NW,315,0.0,0.0,59,0.00,,,0.00,WUHU21623XXSP,2013-01-25 01:40:00,
2013-01-24 20:50:00,14.5,3.5,30.47,NW,315,0.0,0.0,61,0.00,,,0.00,WUHU21623XXSP,2013-01-25 01:50:00,
2013-01-24 21:00:00,14.4,3.3,30.47,NW,315,0.0,0.0,61,0.00,,,0.00,WUHU21623XXSP,2013-01-25 02:00:00,
2013-01-24 21:10:00,14.2,3.5,30.47,NW,315,0.0,0.0,62,0.00,,,0.00,WUHU21623XXSP,2013-01-25 02:10:00,
2013-01-24 21:20:00,13.8,3.2,30.47,NW,315,0.0,0.0,62,0.00,,,0.00,WUHU21623XXSP,2013-01-25 02:20:00,
2013-01-24 21:30:00,13.6,3.3,30.47,NW,315,0.0,0.0,63,0.00,,,0.00,WUHU21623XXSP,2013-01-25 02:30:00,
2013-01-24 21:40:00,13.6,3.7,30.46,NW,315,0.0,0.0,64,0.00,,,0.00,WUHU21623XXSP,2013-01-25 02:40:00,
2013-01-24 21:50:00,13.6,3.7,30.46,NW,315,0.0,0.0,64,0.00,,,0.00,WUHU21623XXSP,2013-01-25 02:50:00,
2013-01-24 22:00:00,13.3,3.6,30.45,NW,315,0.0,0.0,65,0.00,,,0.00,WUHU21623XXSP,2013-01-25 03:00:00,
2013-01-24 22:10:00,12.9,3.3,30.45,NW,315,0.0,0.0,65,0.00,,,0.00,WUHU21623XXSP,2013-01-25 03:10:00,
2013-01-24 22:20:00,12.7,3.1,30.46,NW,315,0.0,0.0,65,0.00,,,0.00,WUHU21623XXSP,2013-01-25 03:20:00,
2013-01-24 22:30:00,12.4,3.1,30.45,NW,315,0.0,0.0,66,0.00,,,0.00,WUHU21623XXSP,2013-01-25 03:30:00,
2013-01-24 22:40:00,12.4,3.4,30.46,NW,315,0.0,0.0,67,0.00,,,0.00,WUHU21623XXSP,2013-01-25 03:40:00,
2013-01-24 22:50:00,12.0,3.1,30.46,West,270,0.0,0.0,67,0.00,,,0.00,WUHU21623XXSP,2013-01-25 03:50:00,
2013-01-24 23:00:00,12.0,3.8,30.45,West,270,0.0,0.0,69,0.00,,,0.00,WUHU21623XXSP,2013-01-25 04:00:00,
2013-01-24 23:10:00,11.8,3.6,30.45,West,270,0.0,0.0,69,0.00,,,0.00,WUHU21623XXSP,2013-01-25 04:10:00,
2013-01-24 23:20:00,11.8,3.6,30.45,West,270,0.0,0.0,69,0.00,,,0.00,WUHU21623XXSP,2013-01-25 04:20:00,
2013-01-24 23:30:00,12.0,3.4,30.46,West,270,0.0,0.0,68,0.00,,,0.00,WUHU21623XXSP,2013-01-25 04:30:00,
2013-01-24 23:40:00,12.4,3.4,30.45,West,270,0.0,0.0,67,0.00,,,0.00,WUHU21623XXSP,2013-01-25 04:40:00,
2013-01-24 23:50:00,12.4,3.8,30.46,West,270,0.0,0.0,68,0.00,,,0.00,WUHU21623XXSP,2013-01-25 04:50:00,